www.pogodaiklimat.ru

Погода и климат >> Архив погоды >> Казахстан >> Караганда


АРХИВ ПОГОДЫ в Караганде

Время (UTC), дата Ветер
(напр.,м/с)
 
Видим.   Явления Облачность Т
(С)
Тd
(С)
f
(%)
Тe
(С)
Тes
(С)
Комфортность P
(гПа)
Po
(гПа)
Тmin
(С)
Tmax
(С)
R
(мм)
R24
(мм)
S
(см)
18 13.09 СВ 1 20 км 10/10 1000 м
[Sc]
+11.0 +6.2 72 +11 +11 по сезону 1022.6 957.7 +19.2
21 13.09 штиль 0 20 км 8/8 1000 м
[Sc]
+8.0 +6.3 89 +7 +7 по сезону 1022.6 957.0
00 14.09 штиль 0 20 км 10/10 1000 м
[Sc]
+10.0 +7.5 84 +9 +9 тепло 1021.9 956.7
03 14.09 штиль 0 20 км 9/9 1000 м
[Sc]
+11.6 +7.8 77 +11 +11 по сезону 1022.2 957.4
06 14.09 С 2 20 км 8/8 1000 м
[Cu med, cong]
+17.0 +5.2 46 +17 +19 тепло 1020.9 957.3 +7.7
09 14.09 З 1 20 км 8/6 1000 м
[Cu hum Ci fib]
+19.2 +4.0 37 +21 +24 комфорт 1019.3 956.3
12 14.09 штиль 0 20 км 6/6 1000 м
[Sc diur, vesp]
+18.2 +3.6 38 +18 +19 по сезону 1018.9 955.7
15 14.09 штиль 0 20 км ясно +11.2 +7.1 76 +11 +11 по сезону 1021.1 956.2 +20.2
18 14.09 штиль 0 20 км ясно +7.3 +4.9 85 +6 +6 прохладно 1021.7 955.9 +20.2
21 14.09 штиль 0 20 км ясно +5.3 +3.7 89 +4 +4 прохладно 1021.4 955.1
00 15.09 штиль 0 20 км 3/3 1000 м
[Sc]
+5.2 +4.1 93 +4 +4 по сезону 1021.7 955.4
03 15.09 ЮВ 1 20 км ясно +12.1 +6.1 67 +12 +15 по сезону 1020.2 955.6
06 15.09 Ю 1 20 км ясно +19.0 +4.3 38 +20 +31 тепло 1018.3 955.3 +4.3
09 15.09 Ю 1 20 км 3/3 1000 м
[Cu hum]
+21.7 +4.8 33 +22 +28 комфорт 1016.6 954.3
12 15.09 СЗ 2 20 км 3/3 1000 м
[Sc diur, vesp Ci fib]
+20.8 +5.1 36 +22 +23 комфорт 1016.3 953.8
15 15.09 СВ 1 20 км ясно +13.8 +7.0 64 +14 +14 по сезону 1018.6 954.5 +22.1
18 15.09 СВ 1 20 км 3/0
[Ci fib]
+13.1 +6.6 65 +13 +13 тепло 1018.3 954.0 +22.1
21 15.09 В 1 20 км 1/0
[Ci fib]
+11.1 +5.4 68 +11 +11 тепло 1018.3 953.6
00 16.09 В 1 20 км 3/0
[Ac trans]
+8.0 +4.4 78 +7 +7 по сезону 1018.4 953.0
03 16.09 В 1 20 км 8/0
[Ci sp]
+15.3 +4.1 47 +16 +18 тепло 1016.2 952.5
06 16.09 ЮВ 2 20 км 9/3 1000 м
[Cu hum Ci sp]
+21.0 +0.4 25 +22 +27 комфорт 1013.9 951.5 +8.0
09 16.09 Ю 2 20 км 9/5 600 м
[Cb cap Ci sp]
+22.5 +1.2 24 +22 +25 комфорт 1012.6 950.6
12 16.09 В 1 20 км 9/5 600 м
[Cb cap Ac cast Ci sp]
+19.8 +5.0 38 +21 +22 комфорт 1013.2 950.6
15 16.09 Ю 3 20 км 9/0
[Ac trans Ci sp]
+16.2 +5.7 50 +16 +16 тепло 1014.7 951.3 +23.9
18 16.09 Ю 2 20 км 10/4 1000 м
[Sc Ac und]
+14.2 +6.0 58 +14 +14 тепло 1015.5 951.7 +23.9
21 16.09 Ю 2 20 км 4/0
[Ac As]
+13.5 +5.6 59 +13 +13 тепло 1015.3 951.3
00 17.09 Ю 2 20 км 8/0
[Ac trans Cs]
+11.7 +5.4 65 +11 +11 тепло 1016.6 952.1
03 17.09 Ю 2 20 км 10/0
[Ac As]
+13.0 +5.5 60 +12 +13 тепло 1017.2 953.0
06 17.09 ЮЗ 3 20 км 9/0
[Ac As]
+19.5 +3.6 35 +20 +23 тепло 1016.5 953.6 +11.3
09 17.09 ЮЗ 6 20 км 9/3 1000 м
[Cu hum Ac As Ci fib]
+22.3 +0.7 24 +22 +23 комфорт 1015.1 952.9
12 17.09 З 4 20 км 10/0
[Ac As]
+22.2 +2.6 28 +22 +22 комфорт 1015.2 953.0
15 17.09 Ю 1 20 км ясно +19.0 +4.3 38 +20 +20 тепло 1016.8 953.8 +23.7
18 17.09 Ю 1 20 км 8/0
[Ci fib]
+16.5 +4.8 46 +17 +17 тепло 1017.4 953.9 +23.7
21 17.09 штиль 0 20 км 3/0
[Ci fib]
+14.0 +1.9 44 +14 +14 тепло 1018.2 954.1
00 18.09 Ю 2 20 км ясно +13.0 +1.7 46 +13 +13 тепло 1018.5 954.2
03 18.09 Ю 2 20 км 3/0
[Ci sp]
+16.0 +2.3 40 +16 +18 тепло 1018.5 954.8
06 18.09 ЮЗ 3 20 км 8/0
[Ci sp]
+22.9 -1.5 20 +22 +28 комфорт 1016.5 954.3 +13.0
09 18.09 ЮЗ 4 20 км 6/0
[Ci sp]
+25.4 -1.2 17 +24 +28 комфорт 1014.4 952.8
12 18.09 ЮЗ 2 20 км 8/0
[Ac lent Ci fib]
+24.6 +1.7 22 +23 +24 комфорт 1013.2 951.6
15 18.09 штиль 0 20 км 3/0
[Ci fib]
+14.5 +5.2 54 +14 +14 тепло 1014.9 951.1 +26.3
18 18.09 ЮВ 1 20 км 3/0
[Ci sp]
+14.8 +3.4 46 +16 +16 тепло 1014.3 950.6 +26.3
21 18.09 ЮВ 1 20 км 4/0
[Ci sp]
+11.3 +2.8 56 +11 +11 тепло 1014.4 949.9
00 19.09 ЮВ 2 20 км 8/8 1000 м
[Sc]
+13.8 +2.0 45 +14 +14 тепло 1014.3 950.4
03 19.09 ЮВ 3 20 км 3/0
[Ac trans]
+16.9 +1.5 35 +17 +18 тепло 1013.8 950.6
06 19.09 ЮЗ 3 20 км ясно +24.8 +1.1 21 +24 +30 комфорт 1011.9 950.4 +10.9
09 19.09 Ю 4 20 км ясно +27.7 +0.2 17 +26 +30 жарко 1009.7 948.9
12 19.09 Ю 4 20 км ясно +27.6 -0.5 16 +25 +26 комфорт 1008.5 947.8
15 19.09 Ю 1 20 км ясно +20.2 +3.3 33 +22 +22 комфорт 1010.5 948.1 +29.0
18 19.09 Ю 2 20 км ясно +18.4 +1.2 32 +19 +19 тепло 1009.8 947.1 +29.0
21 19.09 Ю 1 20 км ясно +12.5 +2.2 49 +13 +13 тепло 1012.5 948.4
00 20.09 Ю 2 20 км ясно +12.8 +3.7 54 +12 +12 тепло 1014.2 950.1
03 20.09 СЗ 3 20 км ясно +13.8 +3.1 48 +13 +15 тепло 1016.5 952.4
06 20.09 ЮЗ 3 20 км ясно +17.9 +2.9 37 +18 +25 тепло 1016.2 953.1 +11.7
09 20.09 З 4 20 км 3/0
[Ac trans Cc]
+20.5 -0.7 24 +21 +25 комфорт 1015.8 953.1
12 20.09 З 4 20 км 4/0
[Ci sp]
+20.2 -5.3 17 +20 +20 тепло 1016.1 953.4
15 20.09 штиль 0 20 км 1/0
[Ci fib]
+11.4 +1.8 52 +11 +11 по сезону 1019.1 954.4 +22.0

 

Местоположение метеостанции Караганда (Карагандинская область, Казахстан): широта 49.80 долгота 73.15 высота над уровнем моря 553 м.

В архиве по умолчанию представлена погода в Караганде за последнюю неделю. Архивные данные за месяц целиком и за предыдущие месяцы, начиная с января 2011 года, Вы можете получить, выбрав интересующий диапазон дат из раскрывающегося списка и нажав кнопку "Ввод!".


*Определитесь, кто Вы:
робот инопланетянин человек

Внимание! Время в таблицах - всемирное. Для получения местного времени необходимо прибавить поправку, которая равна 6 ч.

Смотрите также архив погоды в соседних городах и на ближайших метеорологических станциях:

Погода в Караганде-ШОС (Карагандинская область, Казахстан) (4 км)
Погода в Корнеевке (Карагандинская область, Казахстан) (11 км)
Погода в Темиртау (Карагандинская область, Казахстан) (33 км)
Погода в Топаре (Карагандинская область, Казахстан) (40 км)
Погода в Осакаровке (Карагандинская область, Казахстан) (94 км)
Погода в Молодежном (Карагандинская область, Казахстан) (107 км)
Погода в Бесобе (Карагандинская область, Казахстан) (108 км)
Погода в Жарыке (Карагандинская область, Казахстан) (108 км)
Погода в Кертинди (Карагандинская область, Казахстан) (114 км)
Погода в Киевке (Карагандинская область, Казахстан) (123 км)

Пояснения к столбцам:

Ветер - указаны скорость ветра в м/с - средняя за 10 мин, порывы в срок и между сроками (в фигурных скобках) и направление, откуда дует ветер: С - северный, СВ - северо-восточный, В - восточный, ЮВ - юго-восточный, Ю - южный, ЮЗ - юго-западный, З - западный, СЗ - северо-западный.
Видимость - горизонтальная дальность видимости в метрах или километрах. При видимости от 1 до 10 км при отсутствии осадков обычно наблюдается дымка, при ухудшении видимости до 1 км и менее - туман. В сухую погоду видимость может ухудшаться дымом, пылью или мглою.
Явления - указаны атмосферные явления, наблюдавшиеся в срок или в последний час перед сроком; фигурными скобками обозначены явления, наблюдавшиеся между сроками (за 1-3 часа до срока); квадратными скобками обозначены град или гололедные отложения с указанием их диаметра в мм.
Облачность - указаны через наклонную черту общая и нижняя облачность в баллах и высота нижней границы облаков в метрах; квадратными скобками обозначены формы облаков: Ci - перистые, Cs - перисто-слоистые, Cc - перисто-кучевые, Ac - высококучевые, As - высокослоистые, Sc - слоисто-кучевые, Ns - слоисто-дождевые, Cu - кучевые, Cb - кучево-дождевые. Подробнее классификацию облаков см. в Атласе облаков (PDF).
T - Температура воздуха - температура, измеренная на высоте 2 м над землей.
Td - Температура точки росы - температура, при понижении до которой содержащийся в воздухе водяной пар достигнет насыщения.
f - Относительная влажность воздуха - влажноcть воздуха, измеренная на высоте 2 м над землей.
Te - Эффективная температура - температура, которую ощущает одетый по сезону человек в тени. Характеристика душности погоды. При расчете учитывается влияние влажности воздуха и скорости ветра на теплоощущения человека.
Tes - Эффективная температура на солнце - температура, которую ощущает человек, с поправкой на солнечный нагрев. Характеристика знойности погоды. Зависит от высоты солнца над горизонтом, облачности и скорости ветра. Ночью, в пасмурную погоду, а также при ветре 12 м/с и более поправка равна нулю.
P - Атмосферное давление - приведенное к уровню моря атмосферное давление.
Po - Атмосферное давление - измеренное на уровне метеостанции атмосферное давление.
Tmin - Минимальная температура - минимум температуры воздуха на высоте 2 м над землей.
Tmax - Максимальная температура - максимум температуры воздуха на высоте 2 м над землей.
R - Количество осадков - Количество выпавших осадков за период времени, мм. При наведении курсора мыши на число - период времени, за который выпало указанное количество осадков.
R24 - Количество осадков - Количество выпавших осадков за 24 часа, мм.
S - Снежный покров - Высота снежного покрова, см. При наведении курсора мыши на число - состояние снежного покрова и степень покрытия местности в баллах.